Perryton, TX

12:26 AM CST on February 23, 2017 (GMT -0600)
Perryton Ochiltree County

Weather History for KPYX - May, 2013

Change the Weather History Date:

Tuesday, May 28, 2013

  Actual Average Record
Temperature  
Mean Temperature 80 °F -  
Max Temperature 96 °F 79 °F 98 °F (2006)
Min Temperature 65 °F 52 °F 40 °F (1992)
Cooling Degree Days 16    
Growing Degree Days 30 (Base 50)    
Moisture  
Dew Point 56 °F    
Average Humidity 51    
Maximum Humidity 89    
Minimum Humidity 12    
Precipitation  
Precipitation 0.15 in - - ()
Sea Level Pressure  
Sea Level Pressure 29.68 in    
Wind  
Wind Speed 17 mph (SSW)    
Max Wind Speed 40 mph    
Max Gust Speed 56 mph    
Visibility 10 miles    
Events      
Averages and records for this station are not official NWS values.
T = Trace of Precipitation, MM = Missing Value Source: NWS Daily Summary

Daily Weather History Graph

Daily Weather History Graph

Search for Another Location

Airport or City:

Trip Planner

Search our weather history database for the weather conditions in past years. The results will help you decide how hot, cold, wet, or windy it might be!

Date:

Astronomy

May. 28, 2013 Rise Set
Actual Time 6:27 AM CDT 8:53 PM CDT
Civil Twilight 5:58 AM CDT 9:22 PM CDT
Nautical Twilight 5:21 AM CDT 9:59 PM CDT
Astronomical Twilight 4:41 AM CDT 10:39 PM CDT
Moon No Moon Rise 10:15 AM CDT (5/28)
Length of Visible Light 15h 24m
Length of Day
14h 25m
Waning Gibbous, 82% of the Moon is Illuminated
May 28
Waning Gibbous
May 31
Last Quarter
Jun 8
New
Jun 16
First Quarter
Jun 23
Full

Hourly Weather History & Observations

Time (CDT) Temp. Heat Index Dew Point Humidity Pressure Visibility Wind Dir Wind Speed Gust Speed Precip Events Conditions
12:15 AM 80.1 °F 80.9 °F 59.9 °F 50% 29.68 in 10.0 mi South 19.6 mph 25.3 mph N/A   Clear
12:35 AM 79.2 °F - 61.0 °F 54% 29.69 in 10.0 mi South 17.3 mph - N/A   Clear
12:55 AM 78.8 °F - 62.2 °F 57% 29.69 in 10.0 mi South 18.4 mph - N/A   Clear
1:15 AM 79.2 °F - 63.3 °F 58% 29.69 in 10.0 mi SSW 20.7 mph 29.9 mph N/A   Clear
1:35 AM 78.4 °F - 63.7 °F 60% 29.69 in 10.0 mi South 21.9 mph 27.6 mph N/A   Clear
1:55 AM 77.9 °F - 64.0 °F 62% 29.69 in 10.0 mi SSW 18.4 mph 24.2 mph N/A   Clear
2:15 AM 76.8 °F - 64.0 °F 65% 29.68 in 10.0 mi South 17.3 mph 24.2 mph N/A   Clear
2:35 AM 76.3 °F - 64.4 °F 67% 29.69 in 10.0 mi SSW 18.4 mph - N/A   Clear
2:55 AM 76.1 °F - 64.0 °F 66% 29.68 in 10.0 mi SSW 17.3 mph - N/A   Clear
3:15 AM 75.6 °F - 63.9 °F 67% 29.68 in 10.0 mi SSW 17.3 mph 24.2 mph N/A   Clear
3:35 AM 74.7 °F - 63.5 °F 68% 29.68 in 10.0 mi SSW 17.3 mph - N/A   Clear
3:55 AM 74.3 °F - 63.5 °F 69% 29.68 in 10.0 mi SSW 16.1 mph 23.0 mph N/A   Clear
4:15 AM 73.6 °F - 63.5 °F 71% 29.69 in 10.0 mi SSW 16.1 mph - N/A   Clear
4:35 AM 72.5 °F - 63.3 °F 73% 29.69 in 10.0 mi SSW 15.0 mph - N/A   Clear
4:55 AM 71.8 °F - 63.1 °F 74% 29.69 in 10.0 mi SSW 15.0 mph - N/A   Clear
5:15 AM 71.1 °F - 63.0 °F 75% 29.70 in 10.0 mi SW 9.2 mph - N/A   Clear
5:35 AM 69.6 °F - 62.6 °F 78% 29.70 in 10.0 mi SSW 11.5 mph - N/A   Clear
5:55 AM 68.5 °F - 62.2 °F 80% 29.70 in 10.0 mi SSW 10.4 mph - N/A   Clear
6:15 AM 67.5 °F - 62.1 °F 83% 29.70 in 10.0 mi SSW 11.5 mph - N/A   Clear
6:35 AM 66.2 °F - 61.9 °F 86% 29.70 in 10.0 mi SSW 10.4 mph - N/A   Clear
6:55 AM 65.3 °F - 61.9 °F 89% 29.70 in 7.0 mi South 10.4 mph - N/A   Clear
7:15 AM 66.2 °F - 62.6 °F 88% 29.70 in 10.0 mi SSW 10.4 mph - N/A   Clear
7:35 AM 68.2 °F - 63.0 °F 83% 29.70 in 10.0 mi SSW 12.7 mph - N/A   Clear
7:55 AM 70.2 °F - 63.3 °F 79% 29.70 in 10.0 mi SSW 16.1 mph - N/A   Clear
8:15 AM 72.5 °F - 63.0 °F 72% 29.71 in 10.0 mi SW 18.4 mph 23.0 mph N/A   Clear
8:35 AM 74.3 °F - 62.6 °F 67% 29.71 in 10.0 mi SW 20.7 mph 26.5 mph N/A   Clear
8:55 AM 75.9 °F - 61.9 °F 62% 29.71 in 10.0 mi SSW 20.7 mph - N/A   Clear
9:15 AM 77.9 °F - 61.0 °F 56% 29.71 in 10.0 mi SW 13.8 mph - N/A   Clear
9:35 AM 80.8 °F 81.4 °F 59.9 °F 49% 29.72 in 10.0 mi West 15.0 mph 20.7 mph N/A   Clear
9:55 AM 80.1 °F 80.8 °F 59.4 °F 49% 29.72 in 10.0 mi West 13.8 mph - N/A   Clear
10:15 AM 82.4 °F 82.2 °F 57.9 °F 43% 29.72 in 10.0 mi West 12.7 mph - N/A   Clear
10:35 AM 82.2 °F 81.5 °F 54.9 °F 39% 29.72 in 10.0 mi WSW 9.2 mph - N/A   Clear
10:55 AM 84.4 °F - 51.8 °F 32% 29.72 in 10.0 mi SW 11.5 mph - N/A   Clear
11:15 AM 86.4 °F - 49.6 °F 28% 29.72 in 10.0 mi West 8.1 mph - N/A   Clear
11:35 AM 87.4 °F - 46.9 °F 24% 29.71 in 10.0 mi NNW 4.6 mph - N/A   Clear
11:55 AM 88.7 °F - 44.4 °F 21% 29.71 in 10.0 mi WSW 4.6 mph - N/A   Clear
12:15 PM 89.8 °F - 42.6 °F 19% 29.71 in 10.0 mi West 4.6 mph - N/A   Clear
12:35 PM 90.9 °F - 41.7 °F 18% 29.70 in 10.0 mi WSW 13.8 mph 24.2 mph N/A   Clear
12:55 PM 93.6 °F - 38.7 °F 15% 29.69 in 10.0 mi South 10.4 mph 18.4 mph N/A   Clear
1:55 PM 96.4 °F - 36.1 °F 12% 29.68 in 10.0 mi SW 11.5 mph 21.9 mph N/A   Clear
2:15 PM 96.1 °F 94.1 °F 54.9 °F 25% 29.67 in 10.0 mi South 26.5 mph 32.2 mph N/A   Clear
2:35 PM 94.1 °F 91.9 °F 54.1 °F 26% 29.66 in 10.0 mi South 28.8 mph 39.1 mph N/A   Scattered Clouds
2:55 PM 90.0 °F - 52.3 °F 28% 29.64 in 10.0 mi South 29.9 mph 38.0 mph N/A   Scattered Clouds
3:15 PM 94.1 °F 91.6 °F 53.6 °F 25% 29.64 in 7.0 mi South 31.1 mph 39.1 mph N/A   Clear
3:35 PM 95.2 °F - 52.9 °F 24% 29.62 in 10.0 mi South 27.6 mph 39.1 mph N/A   Clear
3:55 PM 92.7 °F - 51.4 °F 25% 29.62 in 7.0 mi SSW 25.3 mph 36.8 mph N/A   Clear
4:15 PM 92.3 °F - 46.9 °F 21% 29.61 in 10.0 mi South 23.0 mph 32.2 mph N/A   Clear
4:35 PM 91.4 °F - 49.6 °F 24% 29.60 in 10.0 mi South 24.2 mph 34.5 mph N/A   Scattered Clouds
4:55 PM 91.4 °F - 45.5 °F 20% 29.60 in 10.0 mi South 23.0 mph 35.7 mph N/A   Scattered Clouds
5:15 PM 91.6 °F - 45.3 °F 20% 29.60 in 10.0 mi South 26.5 mph 33.4 mph N/A   Clear
5:35 PM 91.4 °F - 44.6 °F 20% 29.60 in 7.0 mi South 28.8 mph 38.0 mph N/A   Clear
5:55 PM 89.4 °F - 39.0 °F 17% 29.62 in 5.0 mi SSW 40.3 mph 50.6 mph N/A   Clear
6:15 PM 66.7 °F - 55.6 °F 67% 29.68 in 1.8 mi SSW 34.5 mph 56.4 mph 0.03 in   Mostly Cloudy
6:35 PM 73.2 °F - 54.0 °F 51% 29.66 in 10.0 mi WSW 16.1 mph 21.9 mph 0.11 in   Mostly Cloudy
6:55 PM 74.5 °F - 54.9 °F 50% 29.68 in 10.0 mi West 10.4 mph 26.5 mph 0.15 in   Scattered Clouds
7:15 PM 74.7 °F - 48.9 °F 40% 29.66 in 10.0 mi West 19.6 mph 28.8 mph N/A   Clear
7:35 PM 74.8 °F - 47.1 °F 37% 29.64 in 10.0 mi West 15.0 mph 25.3 mph N/A   Clear
7:55 PM 78.3 °F - 43.7 °F 29% 29.64 in 10.0 mi WNW 11.5 mph 19.6 mph N/A   Clear
8:15 PM 76.6 °F - 48.0 °F 36% 29.64 in 10.0 mi South 6.9 mph - N/A   Clear
8:35 PM 72.1 °F - 53.6 °F 52% 29.64 in 10.0 mi SE 8.1 mph - N/A   Clear
8:55 PM 72.0 °F - 53.6 °F 52% 29.66 in 10.0 mi SE 9.2 mph - N/A   Clear
9:15 PM 73.4 °F - 54.9 °F 52% 29.66 in 10.0 mi SE 12.7 mph 18.4 mph N/A   Clear
9:35 PM 73.4 °F - 62.1 °F 68% 29.67 in 10.0 mi SE 18.4 mph - N/A   Clear
9:55 PM 72.9 °F - 61.7 °F 68% 29.68 in 10.0 mi SE 19.6 mph - N/A   Clear
10:15 PM 72.1 °F - 61.3 °F 69% 29.69 in 10.0 mi SE 19.6 mph - N/A   Clear
10:35 PM 71.8 °F - 61.3 °F 70% 29.70 in 10.0 mi SE 16.1 mph 24.2 mph N/A   Clear
10:55 PM 70.7 °F - 61.2 °F 72% 29.69 in 10.0 mi ESE 13.8 mph 20.7 mph N/A   Clear
11:15 PM 70.3 °F - 61.2 °F 73% 29.69 in 10.0 mi SE 15.0 mph - N/A   Clear
11:35 PM 72.1 °F - 60.6 °F 67% 29.69 in 10.0 mi SE 19.6 mph 26.5 mph N/A   Clear
11:55 PM 72.0 °F - 60.3 °F 67% 29.68 in 10.0 mi SE 16.1 mph - N/A   Clear